Time,TemperatureF,DewpointF,PressureIn,WindDirection,WindDirectionDegrees,WindSpeedMPH,WindSpeedGustMPH,Humidity,HourlyPrecipIn,Conditions,Clouds,dailyrainin,SoftwareType,DateUTC
2013-02-11 07:30:00,40.4,39.1,29.65,South,180,4.0,9.0,95,0.00,,---,0.06,VWS V14.00,2013-02-11 12:30:00,
2013-02-11 07:49:00,40.9,39.8,29.64,South,188,8.0,8.0,96,0.00,,---,0.06,VWS V14.00,2013-02-11 12:49:00,
2013-02-11 07:50:00,41.0,40.0,29.64,SSW,201,4.0,8.0,96,0.00,,---,0.06,VWS V14.00,2013-02-11 12:50:00,
2013-02-11 07:55:00,41.0,40.0,29.64,SSW,209,6.0,11.0,96,0.00,,---,0.06,VWS V14.00,2013-02-11 12:55:00,
2013-02-11 08:00:00,41.3,40.2,29.64,SSW,194,5.0,8.0,96,0.00,,---,0.06,VWS V14.00,2013-02-11 13:00:00,
2013-02-11 08:05:00,41.7,40.7,29.64,SSW,212,3.0,10.0,96,0.00,,---,0.06,VWS V14.00,2013-02-11 13:05:00,
2013-02-11 08:10:00,41.8,40.8,29.64,SSW,208,3.0,10.0,96,0.00,,---,0.06,VWS V14.00,2013-02-11 13:10:00,
2013-02-11 08:15:00,41.8,40.8,29.63,SSW,201,3.0,10.0,96,0.00,,---,0.06,VWS V14.00,2013-02-11 13:15:00,
2013-02-11 08:20:00,42.1,41.0,29.63,SSW,204,4.0,10.0,96,0.00,,---,0.06,VWS V14.00,2013-02-11 13:20:00,
2013-02-11 08:25:00,42.3,41.2,29.62,SSW,200,3.0,10.0,96,0.00,,---,0.06,VWS V14.00,2013-02-11 13:25:00,
2013-02-11 08:30:00,42.5,41.4,29.62,SW,225,4.0,6.0,96,0.00,,---,0.06,VWS V14.00,2013-02-11 13:30:00,
2013-02-11 08:35:00,42.7,41.6,29.62,SW,236,2.0,8.0,96,0.00,,---,0.06,VWS V14.00,2013-02-11 13:35:00,
2013-02-11 08:40:00,42.8,41.7,29.61,SSW,204,7.0,8.0,96,0.00,,---,0.06,VWS V14.00,2013-02-11 13:40:00,
2013-02-11 08:45:00,42.8,41.7,29.61,SW,218,4.0,4.0,96,0.00,,---,0.06,VWS V14.00,2013-02-11 13:45:00,
2013-02-11 08:50:00,42.8,41.7,29.61,SSW,213,1.0,9.0,96,0.00,,---,0.06,VWS V14.00,2013-02-11 13:50:00,
2013-02-11 08:55:00,42.9,41.8,29.60,SW,217,1.0,11.0,96,0.00,,---,0.06,VWS V14.00,2013-02-11 13:55:00,
2013-02-11 09:00:00,43.2,42.1,29.60,SW,235,5.0,7.0,96,0.00,,---,0.06,VWS V14.00,2013-02-11 14:00:00,
2013-02-11 09:05:00,43.4,42.3,29.60,SSW,205,5.0,11.0,96,0.00,,---,0.06,VWS V14.00,2013-02-11 14:05:00,
2013-02-11 09:10:00,43.7,42.6,29.60,South,190,5.0,11.0,96,0.00,,---,0.06,VWS V14.00,2013-02-11 14:10:00,
2013-02-11 09:15:00,43.9,42.8,29.61,SW,233,7.0,7.0,96,0.00,,---,0.06,VWS V14.00,2013-02-11 14:15:00,
2013-02-11 09:20:00,44.1,43.0,29.61,SSW,198,6.0,10.0,96,0.00,,---,0.06,VWS V14.00,2013-02-11 14:20:00,
2013-02-11 09:25:00,44.2,42.9,29.61,SSW,200,4.0,10.0,95,0.00,,---,0.06,VWS V14.00,2013-02-11 14:25:00,
2013-02-11 09:30:00,44.1,42.5,29.60,SSW,195,7.0,10.0,94,0.00,,---,0.06,VWS V14.00,2013-02-11 14:30:00,
2013-02-11 09:35:00,44.2,42.6,29.59,South,187,4.0,12.0,94,0.00,,---,0.06,VWS V14.00,2013-02-11 14:35:00,
2013-02-11 09:40:00,44.3,42.7,29.59,SSW,194,6.0,12.0,94,0.00,,---,0.06,VWS V14.00,2013-02-11 14:40:00,
2013-02-11 09:45:00,44.4,42.5,29.59,SW,223,6.0,6.0,93,0.00,,---,0.06,VWS V14.00,2013-02-11 14:45:00,
2013-02-11 09:50:00,44.5,42.6,29.59,South,191,2.0,10.0,93,0.00,,---,0.06,VWS V14.00,2013-02-11 14:50:00,
2013-02-11 09:55:00,44.5,42.3,29.59,WSW,240,10.0,10.0,92,0.00,,---,0.06,VWS V14.00,2013-02-11 14:55:00,
2013-02-11 10:00:00,44.9,42.7,29.58,WSW,238,2.0,9.0,92,0.00,,---,0.06,VWS V14.00,2013-02-11 15:00:00,
2013-02-11 10:05:00,45.1,42.9,29.58,WSW,238,5.0,10.0,92,0.00,,---,0.06,VWS V14.00,2013-02-11 15:05:00,
2013-02-11 10:10:00,45.5,42.7,29.58,WSW,257,6.0,13.0,90,0.00,,---,0.06,VWS V14.00,2013-02-11 15:10:00,
2013-02-11 10:15:00,46.0,43.2,29.58,SSW,203,5.0,6.0,90,0.00,,---,0.06,VWS V14.00,2013-02-11 15:15:00,
2013-02-11 10:20:00,46.5,43.1,29.57,SSW,204,11.0,16.0,88,0.00,,---,0.06,VWS V14.00,2013-02-11 15:20:00,
2013-02-11 10:25:00,46.8,43.1,29.57,SW,223,7.0,16.0,87,0.00,,---,0.06,VWS V14.00,2013-02-11 15:25:00,
2013-02-11 10:30:00,46.8,43.1,29.57,SW,222,6.0,8.0,87,0.00,,---,0.06,VWS V14.00,2013-02-11 15:30:00,
2013-02-11 10:35:00,47.1,43.1,29.57,SSW,202,5.0,14.0,86,0.00,,---,0.06,VWS V14.00,2013-02-11 15:35:00,
2013-02-11 10:40:00,47.3,43.0,29.56,SSW,204,6.0,20.0,85,0.00,,---,0.06,VWS V14.00,2013-02-11 15:40:00,
2013-02-11 10:45:00,47.3,42.7,29.56,SSW,204,5.0,11.0,84,0.00,,---,0.06,VWS V14.00,2013-02-11 15:45:00,
2013-02-11 10:50:00,47.2,42.9,29.56,SW,219,4.0,11.0,85,0.00,,---,0.06,VWS V14.00,2013-02-11 15:50:00,
2013-02-11 10:55:00,47.2,42.9,29.56,SW,227,4.0,11.0,85,0.00,,---,0.06,VWS V14.00,2013-02-11 15:55:00,
2013-02-11 11:00:00,47.1,42.5,29.56,WSW,240,7.0,9.0,84,0.00,,---,0.06,VWS V14.00,2013-02-11 16:00:00,
2013-02-11 11:05:00,47.2,42.6,29.56,South,181,3.0,10.0,84,0.00,,---,0.06,VWS V14.00,2013-02-11 16:05:00,
2013-02-11 11:10:00,47.5,42.9,29.55,SW,234,5.0,11.0,84,0.00,,---,0.06,VWS V14.00,2013-02-11 16:10:00,
2013-02-11 11:15:00,47.7,42.8,29.55,SW,221,6.0,6.0,83,0.00,,---,0.06,VWS V14.00,2013-02-11 16:15:00,
2013-02-11 11:20:00,47.8,42.9,29.55,WSW,255,7.0,14.0,83,0.00,,---,0.06,VWS V14.00,2013-02-11 16:20:00,
2013-02-11 11:25:00,47.6,42.7,29.55,WSW,250,6.0,14.0,83,0.00,,---,0.06,VWS V14.00,2013-02-11 16:25:00,
2013-02-11 11:30:00,47.2,42.3,29.55,WSW,250,8.0,8.0,83,0.00,,---,0.06,VWS V14.00,2013-02-11 16:30:00,
2013-02-11 11:35:00,47.0,42.7,29.55,WSW,240,8.0,12.0,85,0.00,,---,0.06,VWS V14.00,2013-02-11 16:35:00,
2013-02-11 11:40:00,46.8,42.8,29.55,SSW,213,3.0,12.0,86,0.00,,---,0.06,VWS V14.00,2013-02-11 16:40:00,
2013-02-11 11:45:00,46.7,42.7,29.55,WSW,248,8.0,12.0,86,0.00,,---,0.06,VWS V14.00,2013-02-11 16:45:00,
2013-02-11 11:50:00,46.7,42.4,29.55,SW,235,6.0,20.0,85,0.01,,---,0.07,VWS V14.00,2013-02-11 16:50:00,
2013-02-11 11:55:00,46.7,42.4,29.55,SW,235,10.0,20.0,85,0.01,,---,0.07,VWS V14.00,2013-02-11 16:55:00,
2013-02-11 14:44:00,46.8,42.2,29.55,SW,227,7.0,20.0,84,0.01,,---,0.07,VWS V14.00,2013-02-11 19:44:00,
2013-02-11 14:49:00,40.5,31.9,29.59,WSW,250,12.0,21.0,71,0.00,,---,0.07,VWS V14.00,2013-02-11 19:49:00,
2013-02-11 14:54:00,40.4,31.8,29.59,WNW,288,11.0,21.0,71,0.00,,---,0.07,VWS V14.00,2013-02-11 19:54:00,
2013-02-11 14:59:00,40.4,31.8,29.59,WSW,250,10.0,21.0,71,0.00,,---,0.07,VWS V14.00,2013-02-11 19:59:00,
2013-02-11 15:04:00,40.2,31.6,29.60,West,276,11.0,17.0,71,0.00,,---,0.07,VWS V14.00,2013-02-11 20:04:00,
2013-02-11 15:09:00,40.0,31.7,29.60,WNW,288,8.0,18.0,72,0.00,,---,0.07,VWS V14.00,2013-02-11 20:09:00,
2013-02-11 15:14:00,39.9,31.3,29.60,West,274,6.0,18.0,71,0.00,,---,0.07,VWS V14.00,2013-02-11 20:14:00,
2013-02-11 15:19:00,39.9,30.9,29.61,WNW,284,10.0,14.0,70,0.00,,---,0.07,VWS V14.00,2013-02-11 20:19:00,
2013-02-11 15:24:00,39.8,30.5,29.61,WNW,287,7.0,22.0,69,0.00,,---,0.07,VWS V14.00,2013-02-11 20:24:00,
2013-02-11 15:29:00,39.7,30.0,29.61,WSW,249,8.0,23.0,68,0.00,,---,0.07,VWS V14.00,2013-02-11 20:29:00,
2013-02-11 15:34:00,39.7,30.0,29.61,West,265,8.0,18.0,68,0.00,,---,0.07,VWS V14.00,2013-02-11 20:34:00,
2013-02-11 15:39:00,39.7,30.0,29.61,WNW,300,12.0,18.0,68,0.00,,---,0.07,VWS V14.00,2013-02-11 20:39:00,
2013-02-11 15:44:00,39.7,29.7,29.62,West,279,5.0,18.0,67,0.00,,---,0.07,VWS V14.00,2013-02-11 20:44:00,
2013-02-11 15:49:00,39.5,29.5,29.62,WNW,292,4.0,15.0,67,0.00,,---,0.07,VWS V14.00,2013-02-11 20:49:00,
2013-02-11 15:54:00,39.2,29.2,29.62,WNW,292,12.0,19.0,67,0.00,,---,0.07,VWS V14.00,2013-02-11 20:54:00,
2013-02-11 15:59:00,38.9,29.6,29.63,WSW,253,9.0,19.0,69,0.00,,---,0.07,VWS V14.00,2013-02-11 20:59:00,
2013-02-11 16:04:00,38.8,29.2,29.63,West,265,6.0,17.0,68,0.00,,---,0.07,VWS V14.00,2013-02-11 21:04:00,
2013-02-11 16:09:00,38.4,29.5,29.64,West,259,12.0,19.0,70,0.00,,---,0.07,VWS V14.00,2013-02-11 21:09:00,
2013-02-11 16:14:00,38.3,29.4,29.64,West,269,6.0,19.0,70,0.00,,---,0.07,VWS V14.00,2013-02-11 21:14:00,
2013-02-11 16:19:00,38.1,29.5,29.64,WSW,256,10.0,16.0,71,0.00,,---,0.07,VWS V14.00,2013-02-11 21:19:00,
2013-02-11 16:24:00,38.0,29.5,29.65,WSW,256,14.0,19.0,71,0.00,,---,0.07,VWS V14.00,2013-02-11 21:24:00,
2013-02-11 16:29:00,37.9,29.4,29.64,WSW,247,13.0,21.0,71,0.00,,---,0.07,VWS V14.00,2013-02-11 21:29:00,
2013-02-11 16:34:00,37.8,29.6,29.65,WSW,248,11.0,14.0,72,0.00,,---,0.07,VWS V14.00,2013-02-11 21:34:00,
2013-02-11 16:39:00,37.6,29.4,29.65,West,270,9.0,23.0,72,0.00,,---,0.07,VWS V14.00,2013-02-11 21:39:00,
2013-02-11 16:44:00,37.5,29.3,29.65,WNW,287,6.0,23.0,72,0.00,,---,0.07,VWS V14.00,2013-02-11 21:44:00,
2013-02-11 16:49:00,37.3,29.5,29.65,West,278,10.0,17.0,73,0.00,,---,0.07,VWS V14.00,2013-02-11 21:49:00,
2013-02-11 16:54:00,36.9,29.1,29.66,West,262,9.0,17.0,73,0.00,,---,0.07,VWS V14.00,2013-02-11 21:54:00,
2013-02-11 16:59:00,36.7,29.2,29.66,WSW,248,11.0,17.0,74,0.00,,---,0.07,VWS V14.00,2013-02-11 21:59:00,
2013-02-11 17:04:00,36.4,28.9,29.66,West,272,11.0,24.0,74,0.00,,---,0.07,VWS V14.00,2013-02-11 22:04:00,
2013-02-11 17:09:00,36.2,28.7,29.67,West,264,12.0,25.0,74,0.00,,---,0.07,VWS V14.00,2013-02-11 22:09:00,
2013-02-11 17:14:00,36.1,29.0,29.67,WSW,254,15.0,25.0,75,0.00,,---,0.07,VWS V14.00,2013-02-11 22:14:00,
2013-02-11 17:19:00,36.0,28.5,29.67,WSW,258,11.0,20.0,74,0.00,,---,0.07,VWS V14.00,2013-02-11 22:19:00,
2013-02-11 17:24:00,36.0,28.5,29.67,West,265,19.0,25.0,74,0.00,,---,0.07,VWS V14.00,2013-02-11 22:24:00,
2013-02-11 17:29:00,36.0,28.2,29.67,WSW,244,13.0,25.0,73,0.00,,---,0.07,VWS V14.00,2013-02-11 22:29:00,
2013-02-11 17:34:00,35.9,28.1,29.68,West,271,7.0,16.0,73,0.00,,---,0.07,VWS V14.00,2013-02-11 22:34:00,
2013-02-11 17:39:00,35.7,27.9,29.68,WSW,254,9.0,19.0,73,0.00,,---,0.07,VWS V14.00,2013-02-11 22:39:00,
2013-02-11 17:44:00,35.8,27.7,29.68,WSW,250,7.0,24.0,72,0.00,,---,0.07,VWS V14.00,2013-02-11 22:44:00,
2013-02-11 17:49:00,35.8,27.3,29.68,West,261,9.0,29.0,71,0.00,,---,0.07,VWS V14.00,2013-02-11 22:49:00,
2013-02-11 17:54:00,35.7,26.5,29.69,WNW,299,9.0,29.0,69,0.00,,---,0.07,VWS V14.00,2013-02-11 22:54:00,
2013-02-11 17:59:00,35.6,26.5,29.69,WSW,257,10.0,29.0,69,0.00,,---,0.07,VWS V14.00,2013-02-11 22:59:00,
2013-02-11 18:04:00,35.3,26.2,29.70,WSW,253,20.0,30.0,69,0.00,,---,0.07,VWS V14.00,2013-02-11 23:04:00,
2013-02-11 18:09:00,35.2,26.1,29.70,WSW,239,19.0,30.0,69,0.00,,---,0.07,VWS V14.00,2013-02-11 23:09:00,
2013-02-11 18:14:00,35.1,26.3,29.70,WSW,248,12.0,30.0,70,0.00,,---,0.07,VWS V14.00,2013-02-11 23:14:00,
2013-02-11 18:19:00,35.0,25.9,29.70,West,275,8.0,21.0,69,0.00,,---,0.07,VWS V14.00,2013-02-11 23:19:00,
2013-02-11 18:24:00,35.0,25.9,29.71,SW,221,7.0,21.0,69,0.00,,---,0.07,VWS V14.00,2013-02-11 23:24:00,
2013-02-11 18:29:00,34.9,26.1,29.71,WSW,252,10.0,21.0,70,0.00,,---,0.07,VWS V14.00,2013-02-11 23:29:00,
2013-02-11 18:34:00,34.8,26.0,29.71,WSW,244,7.0,21.0,70,0.00,,---,0.07,VWS V14.00,2013-02-11 23:34:00,
2013-02-11 18:39:00,34.8,25.7,29.72,WSW,249,5.0,21.0,69,0.00,,---,0.07,VWS V14.00,2013-02-11 23:39:00,
2013-02-11 18:44:00,34.8,26.0,29.72,WSW,250,13.0,21.0,70,0.00,,---,0.07,VWS V14.00,2013-02-11 23:44:00,
2013-02-11 18:49:00,34.8,26.0,29.72,West,264,13.0,22.0,70,0.00,,---,0.07,VWS V14.00,2013-02-11 23:49:00,
2013-02-11 18:54:00,34.8,26.0,29.72,West,267,9.0,22.0,70,0.00,,---,0.07,VWS V14.00,2013-02-11 23:54:00,
2013-02-11 18:59:00,34.7,25.9,29.72,West,265,12.0,22.0,70,0.00,,---,0.07,VWS V14.00,2013-02-11 23:59:00,
2013-02-11 19:04:00,34.7,26.3,29.72,WSW,245,4.0,17.0,71,0.00,,---,0.07,VWS V14.00,2013-02-12 00:04:00,
2013-02-11 19:09:00,34.6,25.8,29.72,WNW,284,2.0,17.0,70,0.00,,---,0.07,VWS V14.00,2013-02-12 00:09:00,
2013-02-11 19:14:00,34.6,25.8,29.72,WSW,251,11.0,11.0,70,0.00,,---,0.07,VWS V14.00,2013-02-12 00:14:00,
2013-02-11 19:19:00,34.6,25.8,29.73,West,267,9.0,19.0,70,0.00,,---,0.07,VWS V14.00,2013-02-12 00:19:00,
2013-02-11 19:24:00,34.6,25.8,29.73,SW,223,5.0,19.0,70,0.00,,---,0.07,VWS V14.00,2013-02-12 00:24:00,
2013-02-11 19:29:00,34.6,25.8,29.73,WSW,252,5.0,8.0,70,0.00,,---,0.07,VWS V14.00,2013-02-12 00:29:00,
2013-02-11 19:34:00,34.5,25.7,29.73,WSW,254,9.0,11.0,70,0.00,,---,0.07,VWS V14.00,2013-02-12 00:34:00,
2013-02-11 19:39:00,34.5,25.7,29.73,West,272,3.0,16.0,70,0.00,,---,0.07,VWS V14.00,2013-02-12 00:39:00,
2013-02-11 19:44:00,34.5,25.7,29.73,WSW,258,6.0,9.0,70,0.00,,---,0.07,VWS V14.00,2013-02-12 00:44:00,
2013-02-11 19:49:00,34.4,26.0,29.73,WNW,295,12.0,15.0,71,0.00,,---,0.07,VWS V14.00,2013-02-12 00:49:00,
2013-02-11 19:54:00,34.4,25.6,29.73,West,260,5.0,16.0,70,0.00,,---,0.07,VWS V14.00,2013-02-12 00:54:00,
2013-02-11 19:59:00,34.4,25.6,29.73,WSW,237,7.0,9.0,70,0.00,,---,0.07,VWS V14.00,2013-02-12 00:59:00,
2013-02-11 20:04:00,34.4,25.6,29.73,West,259,6.0,21.0,70,0.00,,---,0.07,VWS V14.00,2013-02-12 01:04:00,
2013-02-11 20:09:00,34.3,25.5,29.72,SW,231,10.0,21.0,70,0.00,,---,0.07,VWS V14.00,2013-02-12 01:09:00,
2013-02-11 20:15:00,34.3,25.5,29.73,SW,227,8.0,10.0,70,0.00,,---,0.07,VWS V14.00,2013-02-12 01:15:00,
2013-02-11 20:20:00,34.3,25.5,29.73,SW,234,8.0,18.0,70,0.00,,---,0.07,VWS V14.00,2013-02-12 01:20:00,
2013-02-11 20:25:00,34.3,25.5,29.73,West,270,7.0,18.0,70,0.00,,---,0.07,VWS V14.00,2013-02-12 01:25:00,
2013-02-11 20:30:00,34.2,25.5,29.73,WSW,255,8.0,10.0,70,0.00,,---,0.07,VWS V14.00,2013-02-12 01:30:00,
2013-02-11 20:35:00,34.2,25.8,29.73,WSW,237,10.0,17.0,71,0.00,,---,0.07,VWS V14.00,2013-02-12 01:35:00,
2013-02-11 20:40:00,34.2,25.5,29.73,WSW,250,8.0,17.0,70,0.00,,---,0.07,VWS V14.00,2013-02-12 01:40:00,
2013-02-11 20:45:00,34.2,25.8,29.73,West,259,5.0,7.0,71,0.00,,---,0.07,VWS V14.00,2013-02-12 01:45:00,
2013-02-11 20:50:00,34.1,25.7,29.73,WSW,247,7.0,17.0,71,0.00,,---,0.07,VWS V14.00,2013-02-12 01:50:00,
2013-02-11 20:55:00,34.1,25.7,29.73,WSW,246,8.0,17.0,71,0.00,,---,0.07,VWS V14.00,2013-02-12 01:55:00,
2013-02-11 21:00:00,34.1,25.7,29.73,WSW,248,13.0,15.0,71,0.00,,---,0.07,VWS V14.00,2013-02-12 02:00:00,
2013-02-11 21:05:00,34.1,25.7,29.73,WSW,254,8.0,20.0,71,0.00,,---,0.07,VWS V14.00,2013-02-12 02:05:00,
2013-02-11 21:10:00,34.0,25.6,29.73,West,276,9.0,20.0,71,0.00,,---,0.07,VWS V14.00,2013-02-12 02:10:00,
2013-02-11 21:15:00,33.9,25.8,29.74,WSW,240,9.0,15.0,72,0.00,,---,0.07,VWS V14.00,2013-02-12 02:15:00,
2013-02-11 21:20:00,33.9,25.8,29.74,WSW,256,8.0,15.0,72,0.00,,---,0.07,VWS V14.00,2013-02-12 02:20:00,
2013-02-11 21:25:00,33.8,26.1,29.74,West,264,10.0,16.0,73,0.00,,---,0.07,VWS V14.00,2013-02-12 02:25:00,
2013-02-11 21:30:00,33.8,25.7,29.74,WSW,247,8.0,8.0,72,0.00,,---,0.07,VWS V14.00,2013-02-12 02:30:00,
2013-02-11 21:35:00,33.8,26.1,29.74,WSW,242,5.0,14.0,73,0.00,,---,0.07,VWS V14.00,2013-02-12 02:35:00,
2013-02-11 21:40:00,33.7,26.0,29.74,WSW,254,8.0,16.0,73,0.00,,---,0.07,VWS V14.00,2013-02-12 02:40:00,
2013-02-11 21:45:00,33.7,26.0,29.74,WSW,238,7.0,8.0,73,0.00,,---,0.07,VWS V14.00,2013-02-12 02:45:00,
2013-02-11 21:50:00,33.6,26.2,29.74,WSW,256,5.0,13.0,74,0.00,,---,0.07,VWS V14.00,2013-02-12 02:50:00,